Location: Lake Arresoe
(56.0000°N, 12.5000°E)
Time: 21:30:19
(UTC+02:00)

Okean 3 - Pass Details

Date: 15 August 2020
Orbit: 576 x 601 km, 82.5° (Epoch: 01 October)

Event Time Altitude Azimuth Distance (km) Brightness Sun altitude
Rises 22:22:21 0° 349° (N) 2,858 8.1 -11.6°
Reaches altitude 10° 22:24:35 10° 353° (N) 1,954 7.0 -11.8°
Maximum altitude 22:28:53 63° 75° (ENE) 676 3.6 -12.2°
Enters shadow 22:31:58 18° 153° (SSE) 1,479 4.9 -12.5°
